Fort Polk, LA

4:57 PM CST on January 22, 2018 (GMT -0600)
Fort Polk

Weather History for KAQV - February, 2013

Change the Weather History Date:

Friday, February 8, 2013

  Actual Average (KPOE) Record (KPOE)
Temperature  
Mean Temperature 52 °F -  
Max Temperature 60 °F 59 °F 84 °F (2017)
Min Temperature 45 °F 41 °F 27 °F (2011)
Degree Days  
Heating Degree Days 12    
Growing Degree Days 2 (Base 50)    
Moisture  
Dew Point 52 °F    
Average Humidity 87    
Maximum Humidity 94    
Minimum Humidity 75    
Precipitation  
Precipitation 0.00 in - - ()
Sea Level Pressure  
Sea Level Pressure 30.08 in    
Wind  
Wind Speed 3 mph (North)    
Max Wind Speed 9 mph    
Max Gust Speed -    
Visibility 9 miles    
Events Rain    
Averages and records for this station are not official NWS values.
T = Trace of Precipitation, MM = Missing Value Source: NWS Daily Summary

Daily Weather History Graph

Daily Weather History Graph

Search for Another Location

Airport or City:

Trip Planner

Search our weather history database for the weather conditions in past years. The results will help you decide how hot, cold, wet, or windy it might be!

Date:

Astronomy

Feb. 08, 2013 Rise Set
Actual Time 7:00 AM CST 5:54 PM CST
Civil Twilight 6:35 AM CST 6:19 PM CST
Nautical Twilight 6:06 AM CST 6:48 PM CST
Astronomical Twilight 5:38 AM CST 7:16 PM CST
Moon 5:26 AM CST (2/8) 4:30 PM CST (2/8)
Length of Visible Light 11h 44m
Length of Day
10h 54m
Waning Crescent, 3% of the Moon is Illuminated
Feb 8
Waning Crescent
Feb 10
New
Feb 17
First Quarter
Feb 25
Full
Mar 4
Last Quarter

Hourly Weather History & Observations

Time (CST) Temp. Windchill Dew Point Humidity Pressure Visibility Wind Dir Wind Speed Gust Speed Precip Events Conditions
12:37 AM 57.2 °F - 55.4 °F 94% 29.96 in 5.0 mi Calm Calm - N/A   Overcast
12:56 AM 57.0 °F - 55.0 °F 93% 29.96 in 4.0 mi Calm Calm - N/A   Mostly Cloudy
1:30 AM 57.2 °F - 55.4 °F 94% 29.97 in 6.0 mi Calm Calm - N/A   Overcast
1:43 AM 57.2 °F - 55.4 °F 94% 29.96 in 6.0 mi Calm Calm - N/A   Overcast
1:56 AM 59.0 °F - 57.0 °F 93% 29.96 in 6.0 mi Calm Calm - N/A   Overcast
2:56 AM 60.1 °F - 57.9 °F 93% 29.96 in 6.0 mi Variable 4.6 mph - N/A   Overcast
3:56 AM 60.1 °F - 57.9 °F 93% 29.97 in 9.0 mi West 9.2 mph - N/A   Overcast
4:51 AM 59.0 °F - 55.4 °F 88% 30.00 in 10.0 mi Variable 3.5 mph - N/A   Overcast
4:56 AM 59.0 °F - 55.0 °F 87% 30.00 in 10.0 mi Variable 4.6 mph - N/A   Overcast
5:19 AM 59.0 °F - 55.4 °F 88% 30.00 in 9.0 mi Calm Calm - N/A   Overcast
5:56 AM 57.9 °F - 55.0 °F 90% 30.02 in 9.0 mi NW 5.8 mph - N/A   Overcast
6:04 AM 57.2 °F - 55.4 °F 94% 30.03 in 9.0 mi Variable 3.5 mph - N/A   Overcast
6:28 AM 57.2 °F - 55.4 °F 94% 30.04 in 8.0 mi Variable 6.9 mph - N/A   Overcast
6:56 AM 57.0 °F - 54.0 °F 89% 30.06 in 10.0 mi Calm Calm - N/A   Overcast
7:41 AM 57.2 °F - 53.6 °F 88% 30.08 in 10.0 mi NW 5.8 mph - N/A   Overcast
7:56 AM 57.0 °F - 53.1 °F 87% 30.08 in 10.0 mi Variable 6.9 mph - N/A   Overcast
8:56 AM 57.9 °F - 53.1 °F 84% 30.11 in 10.0 mi North 8.1 mph - N/A   Overcast
9:56 AM 57.0 °F - 53.1 °F 87% 30.14 in 10.0 mi Variable 5.8 mph - 0.00 in   Overcast
10:56 AM 57.0 °F - 54.0 °F 89% 30.15 in 7.0 mi North 6.9 mph - 0.00 in Rain Light Rain
11:12 AM 57.2 °F - 53.6 °F 88% 30.16 in 10.0 mi Variable 6.9 mph - N/A   Overcast
11:56 AM 59.0 °F - 51.1 °F 75% 30.15 in 10.0 mi North 8.1 mph - N/A   Overcast
12:56 PM 57.9 °F - 51.1 °F 78% 30.14 in 10.0 mi North 8.1 mph - N/A   Overcast
1:56 PM 57.9 °F - 50.0 °F 75% 30.14 in 10.0 mi North 5.8 mph - N/A   Overcast
2:56 PM 57.0 °F - 50.0 °F 77% 30.14 in 10.0 mi North 8.1 mph - N/A   Overcast
3:56 PM 55.9 °F - 48.9 °F 77% 30.14 in 10.0 mi NE 3.5 mph - N/A   Overcast
4:56 PM 55.0 °F - 48.0 °F 77% 30.15 in 10.0 mi NNE 3.5 mph - N/A   Overcast
5:56 PM 55.0 °F - 48.0 °F 77% 30.16 in 10.0 mi Calm Calm - N/A   Overcast
6:36 PM 51.8 °F - 46.4 °F 82% 30.17 in 10.0 mi Calm Calm - N/A   Scattered Clouds
6:56 PM 50.0 °F - 46.0 °F 86% 30.18 in 10.0 mi Calm Calm - N/A   Clear
7:56 PM 46.9 °F - 45.0 °F 93% 30.17 in 6.0 mi Calm Calm - N/A   Clear
8:56 PM 45.0 °F - 43.0 °F 93% 30.18 in 6.0 mi Calm Calm - N/A   Clear
9:56 PM 48.0 °F - 44.1 °F 86% 30.18 in 10.0 mi NE 4.6 mph - N/A   Clear
10:56 PM 46.9 °F - 42.1 °F 83% 30.17 in 10.0 mi Variable 4.6 mph - N/A   Clear
11:56 PM 46.0 °F 43.9 °F 41.0 °F 83% 30.17 in 10.0 mi Variable 4.6 mph - N/A   Clear